Location: Caltech
(34.1382°N, 118.1253°W)
Time: 16:17:03
(UTC-07:00)

Iridium 91 - Visible Passes

Search period start: 25 June 2016 00:00
Search period end: 05 July 2016 00:00
Orbit: 776 x 779 km, 86.4° (Epoch: 25 June)

Date Brightness Start Highest point End Pass type
(mag) Time Alt. Az. Time Alt. Az. Time Alt. Az.
25 Jun 7.5 00:35:58 10° NW 00:39:05 19° WNW 00:39:05 19° WNW visible
25 Jun 7.1 22:21:46 10° NNE 22:25:16 20° ENE 22:25:16 20° ENE visible
26 Jun 6.7 00:01:34 10° NNW 00:05:44 36° WNW 00:05:44 36° WNW visible
26 Jun 5.7 23:27:43 10° N 23:32:24 67° NW 23:32:24 67° NW visible
27 Jun 5.8 22:54:17 10° N 22:59:04 55° ENE 22:59:04 55° ENE visible
28 Jun 7.9 00:37:14 10° NW 00:39:32 13° W 00:39:32 13° W visible
28 Jun 6.6 22:21:16 10° NNE 22:25:44 29° E 22:25:44 29° E visible
29 Jun 7.2 00:02:06 10° NNW 00:06:13 25° W 00:06:13 25° W visible
29 Jun 7.3 21:49:01 10° NE 21:52:02 15° ENE 21:52:25 15° E visible
29 Jun 6.1 23:27:58 10° NNW 23:32:54 49° W 23:32:54 49° W visible
30 Jun 5.4 22:54:18 10° N 22:59:32 85° E 22:59:35 85° ESE visible
01 Jul 5.9 22:21:01 10° NNE 22:25:59 43° E 22:26:17 43° E visible
02 Jul 7.6 00:02:58 10° NW 00:06:16 17° W 00:06:46 17° W visible
02 Jul 6.8 21:48:13 10° NNE 21:52:18 23° E 21:53:00 22° E visible
02 Jul 6.8 23:28:23 10° NNW 23:33:00 33° W 23:33:29 32° W visible
03 Jul 7.5 21:16:45 10° ENE 21:18:29 12° ENE 21:19:44 11° E visible
03 Jul 5.7 22:54:27 10° N 22:59:37 64° W 23:00:12 59° SW visible
04 Jul 5.5 22:20:56 10° N 22:26:08 66° E 22:26:56 57° SE visible
